FW7011 Weather Reports


time (UTC)temp
C
wind
direction
speed
KPH
gust
KPH
rain 1hr
cm
rain 24hr
cm
rain mn
cm
humidity
%
barometer
mb
20260503033000 6 105 4.8 8.0 0.00 0.00 0.00 70 1016.7
20260503032458 6 97 8.0 8.0 0.00 0.00 0.00 70 1016.5
20260503031955 6 85 4.8 9.7 0.00 0.00 0.00 73 1016.7
20260503031453 6 110 8.0 8.0 0.00 0.00 0.00 73 1016.7
20260503030949 6 96 4.8 8.0 0.00 0.00 0.00 67 1016.6
20260503030446 6 177 3.2 6.4 0.00 0.00 0.00 67 1016.7
20260503025943 6 93 4.8 6.4 0.00 0.00 0.00 68 1016.8
20260503025440 6 102 3.2 8.0 0.00 0.00 0.00 70 1016.6
20260503024938 6 106 4.8 6.4 0.00 0.00 0.00 69 1016.6
20260503024434 6 117 6.4 8.0 0.00 0.00 0.00 67 1016.6
20260503023931 6 106 6.4 8.0 0.00 0.00 0.00 68 1016.5
20260503023428 6 95 8.0 9.7 0.00 0.00 0.00 71 1016.7
20260503022925 6 114 6.4 8.0 0.00 0.00 0.00 69 1016.6
20260503022420 6 121 6.4 8.0 0.00 0.00 0.00 68 1016.4
20260503021916 7 116 8.0 8.0 0.00 0.00 0.00 67 1016.2
20260503021412 7 113 6.4 6.4 0.00 0.00 0.00 65 1016.4
20260503020910 8 105 6.4 8.0 0.00 0.00 0.00 61 1016.1
20260503020408 8 106 4.8 8.0 0.00 0.00 0.00 59 1016.0
20260503015903 8 94 6.4 6.4 0.00 0.00 0.00 59 1016.4
20260503015401 8 95 3.2 4.8 0.00 0.00 0.00 55 1016.4
20260503014856 8 95 4.8 8.0 0.00 0.00 0.00 55 1015.9
20260503014354 8 95 6.4 8.0 0.00 0.00 0.00 56 1016.1
20260503013852 8 97 8.0 8.0 0.00 0.00 0.00 55 1016.1
20260503013348 9 114 4.8 6.4 0.00 0.00 0.00 53 1016.0
20260503012845 9 82 1.6 4.8 0.00 0.00 0.00 51 1015.8
20260503012343 10 89 3.2 4.8 0.00 0.00 0.00 50 1015.7
20260503011840 10 103 0.0 4.8 0.00 0.00 0.00 50 1015.8
20260503011337 10 313 1.6 8.0 0.00 0.00 0.00 49 1015.5
20260503010833 10 67 1.6 8.0 0.00 0.00 0.00 50 1015.7
20260503010331 10 323 8.0 8.0 0.00 0.00 0.00 48 1015.6
20260503005827 10 352 3.2 6.4 0.00 0.00 0.00 47 1015.5
20260503005325 10 281 3.2 8.0 0.00 0.00 0.00 47 1015.4
20260503004821 11 318 3.2 6.4 0.00 0.00 0.00 46 1015.5
20260503004319 11 359 8.0 9.7 0.00 0.00 0.00 45 1015.3
20260503003816 11 342 6.4 11.3 0.00 0.00 0.00 45 1015.2
20260503003313 11 333 11.3 16.1 0.00 0.00 0.00 46 1015.2
20260503002809 11 1 6.4 11.3 0.00 0.00 0.00 45 1014.9
20260503002307 11 346 8.0 19.3 0.00 0.00 0.00 44 1015.1
20260503001803 11 338 3.2 14.5 0.00 0.00 0.00 44 1014.8
20260503001300 11 296 11.3 14.5 0.00 0.00 0.00 44 1014.8
20260503000757 11 349 4.8 14.5 0.00 0.00 0.00 45 1014.6
20260503000254 11 60 4.8 8.0 0.00 0.00 0.00 45 1014.8
20260502235751 12 89 3.2 4.8 0.00 0.00 0.00 43 1014.4
20260502235249 12 306 4.8 12.9 0.00 0.00 0.00 42 1014.5
20260502234745 12 340 3.2 11.3 0.00 0.00 0.00 41 1014.3
20260502234242 13 274 11.3 17.7 0.00 0.00 0.00 40 1014.2
20260502233738 13 4 6.4 9.7 0.00 0.00 0.00 40 1014.2
20260502233235 13 275 14.5 16.1 0.00 0.00 0.00 39 1014.1
20260502232730 14 357 1.6 12.9 0.00 0.00 0.00 39 1014.1
20260502232228 14 308 4.8 9.7 0.00 0.00 0.00 40 1014.1
20260502231725 14 355 1.6 8.0 0.00 0.00 0.00 40 1013.9
20260502231222 13 45 8.0 9.7 0.00 0.00 0.00 39 1013.6
20260502230721 15 48 9.7 16.1 0.00 0.00 0.00 38 1013.7
20260502230219 14 59 11.3 11.3 0.00 0.00 0.00 38 1013.7
20260502225714 13 322 16.1 17.7 0.00 0.00 0.00 39 1013.8
20260502225212 13 314 8.0 17.7 0.00 0.00 0.00 39 1013.9
20260502224708 13 305 14.5 19.3 0.00 0.00 0.00 39 1013.7
20260502224205 13 350 8.0 14.5 0.00 0.00 0.00 40 1013.7
20260502223702 14 321 8.0 19.3 0.00 0.00 0.00 40 1013.8
20260502223201 15 269 9.7 16.1 0.00 0.00 0.00 39 1013.9
20260502222658 14 265 8.0 9.7 0.00 0.00 0.00 41 1013.4
20260502222154 14 274 9.7 14.5 0.00 0.00 0.00 40 1013.7
20260502221650 14 30 1.6 16.1 0.00 0.00 0.00 39 1013.7
20260502221147 14 339 8.0 9.7 0.00 0.00 0.00 39 1013.3
20260502220643 14 6 9.7 20.9 0.00 0.00 0.00 39 1013.3
20260502220139 14 201 4.8 20.9 0.00 0.00 0.00 40 1013.4
20260502215637 14 323 1.6 22.5 0.00 0.00 0.00 39 1013.4
20260502215133 15 17 12.9 24.1 0.00 0.00 0.00 38 1013.1
20260502214631 15 324 4.8 19.3 0.00 0.00 0.00 37 1013.1
20260502214128 15 329 9.7 12.9 0.00 0.00 0.00 38 1013.2
20260502213625 15 344 11.3 20.9 0.00 0.00 0.00 37 1012.9
20260502213122 15 191 1.6 17.7 0.00 0.00 0.00 37 1012.5
20260502212621 15 347 4.8 19.3 0.00 0.00 0.00 37 1012.6
20260502212119 15 271 19.3 19.3 0.00 0.00 0.00 37 1012.5
20260502211614 15 304 11.3 19.3 0.00 0.00 0.00 37 1012.4
20260502211112 16 267 4.8 11.3 0.00 0.00 0.00 37 1012.2
20260502210609 16 299 8.0 16.1 0.00 0.00 0.00 36 1012.2
20260502210106 17 262 9.7 19.3 0.00 0.00 0.00 35 1012.0
20260502205602 17 76 6.4 8.0 0.00 0.00 0.00 35 1012.0
20260502205059 16 238 12.9 20.9 0.00 0.00 0.00 34 1012.2
20260502204556 16 347 11.3 17.7 0.00 0.00 0.00 35 1012.2
20260502204054 16 102 1.6 11.3 0.00 0.00 0.00 35 1012.0
20260502203550 17 264 11.3 16.1 0.00 0.00 0.00 34 1012.0
20260502203048 17 241 11.3 22.5 0.00 0.00 0.00 33 1012.0
20260502202543 17 3 9.7 22.5 0.00 0.00 0.00 34 1012.1
20260502202042 16 28 6.4 11.3 0.00 0.00 0.00 36 1012.1
20260502201538 16 320 9.7 14.5 0.00 0.00 0.00 33 1012.2
20260502201034 17 265 11.3 19.3 0.00 0.00 0.00 33 1012.1
20260502200530 16 279 8.0 17.7 0.00 0.00 0.00 35 1012.0
20260502200028 16 45 4.8 16.1 0.00 0.00 0.00 32 1012.2
20260502195526 17 357 8.0 19.3 0.00 0.00 0.00 33 1012.5
20260502195021 17 236 1.6 8.0 0.00 0.00 0.00 33 1012.2
20260502194518 17 285 4.8 17.7 0.00 0.00 0.00 33 1012.5
20260502194014 17 264 11.3 16.1 0.00 0.00 0.00 35 1012.5
20260502193512 17 315 4.8 12.9 0.00 0.00 0.00 36 1012.9
20260502193009 17 50 6.4 9.7 0.00 0.00 0.00 33 1012.9
20260502192505 17 231 1.6 8.0 0.00 0.00 0.00 39 1013.0
20260502192002 17 305 3.2 11.3 0.00 0.00 0.00 33 1012.9
20260502191459 16 257 6.4 11.3 0.00 0.00 0.00 34 1013.0
20260502190956 16 301 0.0 8.0 0.00 0.00 0.00 33 1012.9
20260502190454 17 72 4.8 14.5 0.00 0.00 0.00 35 1013.2
20260502185950 16 85 9.7 11.3 0.00 0.00 0.00 36 1012.7
20260502185446 16 33 6.4 16.1 0.00 0.00 0.00 35 1013.2
20260502184943 17 302 12.9 16.1 0.00 0.00 0.00 34 1012.9
20260502184438 17 139 4.8 4.8 0.00 0.00 0.00 40 1012.9
20260502183934 16 292 11.3 16.1 0.00 0.00 0.00 35 1013.3
20260502183431 15 273 8.0 14.5 0.00 0.00 0.00 36 1013.2
20260502182926 16 243 20.9 24.1 0.00 0.00 0.00 36 1013.3
20260502182422 16 264 11.3 16.1 0.00 0.00 0.00 39 1013.4
20260502181918 16 54 9.7 17.7 0.00 0.00 0.00 39 1013.3
20260502181417 15 27 4.8 9.7 0.00 0.00 0.00 39 1013.6
20260502180915 15 83 8.0 16.1 0.00 0.00 0.00 36 1013.9
20260502180412 15 56 1.6 12.9 0.00 0.00 0.00 37 1014.0
20260502170330 14 80 4.8 14.5 0.00 0.00 0.00 40 1014.9
20260502164318 13 316 4.8 8.0 0.00 0.00 0.00 51 1015.2
20260502163814 12 337 4.8 9.7 0.00 0.00 0.00 45 1015.5
20260502163310 13 100 9.7 9.7 0.00 0.00 0.00 49 1015.6
20260502162808 12 26 4.8 8.0 0.00 0.00 0.00 46 1015.6
20260502162305 12 244 3.2 6.4 0.00 0.00 0.00 43 1015.5
20260502161801 12 355 6.4 9.7 0.00 0.00 0.00 44 1015.4
20260502161257 12 8 3.2 6.4 0.00 0.00 0.00 47 1015.7
20260502160755 12 78 4.8 8.0 0.00 0.00 0.00 44 1015.7
20260502160254 12 34 9.7 14.5 0.00 0.00 0.00 44 1015.7
20260502152223 11 358 4.8 11.3 0.00 0.00 0.00 47 1016.1
20260502151721 11 341 4.8 8.0 0.00 0.00 0.00 48 1016.2
20260502151218 11 298 3.2 11.3 0.00 0.00 0.00 48 1016.1
20260502150715 10 23 3.2 8.0 0.00 0.00 0.00 48 1015.7
20260502150212 10 24 8.0 9.7 0.00 0.00 0.00 48 1015.7
20260502130600 10 32 3.2 8.0 0.00 0.00 0.00 50 1015.6
20260502123544 10 26 3.2 4.8 0.00 0.00 0.00 55 1015.2
20260502123040 10 38 0.0 4.8 0.00 0.00 0.00 58 1015.0
20260502122537 10 76 3.2 4.8 0.00 0.00 0.00 60 1014.9
20260502122034 10 310 1.6 8.0 0.00 0.00 0.00 62 1014.9
20260502121531 10 358 1.6 4.8 0.00 0.00 0.00 62 1014.9
20260502121029 10 58 6.4 8.0 0.00 0.00 0.00 60 1015.0
20260502120525 10 116 3.2 4.8 0.00 0.00 0.00 63 1015.0
20260502115520 10 98 3.2 6.4 0.00 0.00 0.00 59 1015.3
20260502115015 10 31 0.0 6.4 0.00 0.00 0.00 60 1015.1
20260502114512 10 300 4.8 6.4 0.00 0.00 0.00 58 1014.9
20260502114009 10 76 1.6 3.2 0.00 0.00 0.00 60 1014.9
20260502113507 10 223 3.2 4.8 0.00 0.00 0.00 59 1014.7
20260502113005 10 180 0.0 6.4 0.00 0.00 0.00 59 1014.8
20260502112503 10 57 6.4 8.0 0.00 0.00 0.00 57 1014.7
20260502112000 10 19 3.2 9.7 0.00 0.00 0.00 59 1014.8
20260502111457 10 160 1.6 4.8 0.00 0.00 0.00 57 1014.7
20260502110955 10 312 1.6 8.0 0.00 0.00 0.00 56 1014.4
20260502110452 10 78 0.0 8.0 0.00 0.00 0.00 57 1014.5
20260502105949 10 22 1.6 8.0 0.00 0.00 0.00 57 1014.6
20260502105447 10 354 4.8 8.0 0.00 0.00 0.00 57 1014.7
20260502104944 10 55 4.8 6.4 0.00 0.00 0.00 58 1014.5
20260502104441 10 337 8.0 9.7 0.00 0.00 0.00 57 1014.4
20260502103938 10 80 4.8 4.8 0.00 0.00 0.00 59 1014.4
20260502103436 10 194 3.2 4.8 0.00 0.00 0.00 59 1014.2
20260502102933 10 2 3.2 11.3 0.00 0.00 0.00 59 1014.5
20260502102429 10 328 6.4 11.3 0.00 0.00 0.00 61 1014.1
20260502101926 10 54 4.8 4.8 0.00 0.00 0.00 64 1014.3
20260502101425 10 45 6.4 6.4 0.00 0.00 0.00 64 1014.4
20260502100923 10 62 6.4 9.7 0.00 0.00 0.00 64 1014.5
20260502100422 10 92 3.2 8.0 0.00 0.00 0.00 66 1014.5
20260502091356 10 259 3.2 9.7 0.00 0.00 0.00 69 1014.7
20260502090853 10 342 6.4 8.0 0.00 0.00 0.00 69 1014.6
20260502090350 10 62 6.4 9.7 0.00 0.00 0.00 69 1014.6
20260502071245 11 333 8.0 14.5 0.00 0.00 0.00 68 1013.4
20260502070743 11 27 6.4 8.0 0.00 0.00 0.00 69 1013.7
20260502070240 11 46 8.0 9.7 0.00 0.00 0.00 69 1013.4
20260502065739 11 52 9.7 9.7 0.00 0.00 0.00 70 1013.6
20260502065236 11 279 4.8 14.5 0.00 0.00 0.00 71 1013.6
20260502064735 11 150 0.0 4.8 0.00 0.00 0.00 73 1013.7
20260502064232 11 73 8.0 11.3 0.00 0.00 0.00 72 1014.1
20260502063729 11 71 3.2 6.4 0.00 0.00 0.00 73 1013.8
20260502063227 11 58 4.8 8.0 0.00 0.00 0.00 73 1014.0
20260502062724 11 14 3.2 6.4 0.00 0.00 0.00 74 1014.1
20260502062222 11 80 3.2 4.8 0.00 0.00 0.00 74 1014.0
20260502061720 11 337 3.2 4.8 0.00 0.00 0.00 73 1014.0
20260502061217 11 338 3.2 6.4 0.00 0.00 0.00 73 1014.2
20260502060712 11 38 4.8 14.5 0.00 0.00 0.00 73 1014.1
20260502060209 11 285 1.6 8.0 0.00 0.00 0.00 74 1014.1
20260502055707 11 342 0.0 9.7 0.00 0.00 0.00 75 1014.6
20260502055204 11 31 1.6 4.8 0.00 0.00 0.00 78 1014.4
20260502054703 11 35 1.6 4.8 0.00 0.00 0.00 81 1014.2
20260502054200 11 31 1.6 6.4 0.00 0.00 0.00 80 1014.2
20260502053658 11 352 1.6 4.8 0.00 0.00 0.00 79 1014.5
20260502053154 11 37 3.2 3.2 0.00 0.00 0.00 80 1014.6
20260502052653 11 53 1.6 3.2 0.00 0.00 0.00 81 1014.5
20260502052151 10 87 4.8 4.8 0.00 0.00 0.00 82 1014.5
20260502051648 11 74 3.2 3.2 0.00 0.00 0.00 82 1014.3
20260502051146 11 106 1.6 3.2 0.00 0.00 0.00 82 1014.3
20260502050642 11 123 1.6 3.2 0.00 0.00 0.00 83 1014.4
20260502050139 11 124 1.6 3.2 0.00 0.00 0.00 84 1014.2
20260502045636 11 98 3.2 4.8 0.00 0.00 0.00 85 1014.3
20260502045133 11 101 4.8 4.8 0.00 0.00 0.00 85 1014.2
20260502044629 11 99 4.8 4.8 0.00 0.00 0.00 85 1014.3
20260502044126 11 97 4.8 4.8 0.00 0.00 0.00 85 1014.7
20260502043624 11 110 6.4 8.0 0.00 0.00 0.00 86 1014.4
20260502043121 11 116 3.2 6.4 0.00 0.00 0.00 84 1014.3
20260502042620 11 93 4.8 8.0 0.00 0.00 0.00 82 1014.3
20260502042118 11 105 6.4 6.4 0.00 0.00 0.00 82 1014.5
20260502041616 11 84 4.8 6.4 0.00 0.00 0.00 82 1014.5
20260502041113 11 68 3.2 6.4 0.00 0.00 0.00 83 1014.7
20260502040609 11 52 3.2 8.0 0.00 0.00 0.00 84 1014.7
20260502040107 11 66 3.2 4.8 0.00 0.00 0.00 83 1014.4
20260502035603 11 112 6.4 6.4 0.00 0.00 0.00 83 1014.5
20260502035100 11 35 3.2 6.4 0.00 0.00 0.00 82 1014.3
20260502034557 11 54 6.4 8.0 0.00 0.00 0.00 83 1014.2
20260502034056 11 89 1.6 6.4 0.00 0.00 0.00 83 1014.2
20260502033554 11 112 3.2 6.4 0.00 0.00 0.00 83 1014.2